Mullan Pass, MT

7:42 PM MDT on March 29, 2017 (GMT -0600)
Mullan Pass

Weather History for KMLP - September, 2013

Change the Weather History Date:

Saturday, September 14, 2013

  Actual Average (K3TH) Record (K3TH)
Temperature  
Mean Temperature 66 °F -  
Max Temperature 73 °F 72 °F 90 °F (2002)
Min Temperature 57 °F 47 °F 42 °F (1999)
Growing Degree Days 16 (Base 50)    
Moisture  
Dew Point 41 °F    
Average Humidity 44    
Maximum Humidity 55    
Minimum Humidity 29    
Precipitation  
Precipitation 0.00 in - - ()
Sea Level Pressure  
Sea Level Pressure 29.83 in    
Wind  
Wind Speed 5 mph (ESE)    
Max Wind Speed 10 mph    
Max Gust Speed 25 mph    
Visibility 10 miles    
Events      
Averages and records for this station are not official NWS values.
T = Trace of Precipitation, MM = Missing Value Source: NWS Daily Summary

Daily Weather History Graph

Daily Weather History Graph

Search for Another Location

Airport or City:

Trip Planner

Search our weather history database for the weather conditions in past years. The results will help you decide how hot, cold, wet, or windy it might be!

Date:

Astronomy

Sep. 14, 2013 Rise Set
Actual Time 6:19 AM PDT 6:56 PM PDT
Civil Twilight 5:48 AM PDT 7:26 PM PDT
Nautical Twilight 5:11 AM PDT 8:03 PM PDT
Astronomical Twilight 4:33 AM PDT 8:41 PM PDT
Moon 3:56 PM PDT (9/14) 12:38 AM PDT (9/14)
Length of Visible Light 13h 38m
Length of Day
12h 36m
Waxing Gibbous, 73% of the Moon is Illuminated
Sep 14
Waxing Gibbous
Sep 19
Full
Sep 26
Last Quarter
Oct 4
New
Oct 11
First Quarter

Hourly Weather History & Observations

Time (PDT) Temp. Dew Point Humidity Pressure Visibility Wind Dir Wind Speed Gust Speed Precip Events Conditions
12:53 AM 64.0 °F 43.0 °F 46% 29.75 in 10.0 mi Variable 4.6 mph - N/A   Clear
1:53 AM 63.0 °F 43.0 °F 48% 29.75 in 10.0 mi Variable 6.9 mph - N/A   Clear
2:53 AM 63.0 °F 43.0 °F 48% 29.76 in 10.0 mi Variable 5.8 mph - N/A   Clear
3:53 AM 62.1 °F 43.0 °F 50% 29.77 in 10.0 mi East 6.9 mph - N/A   Clear
4:53 AM 59.0 °F 43.0 °F 55% 29.80 in 10.0 mi Variable 4.6 mph - N/A   Clear
5:53 AM 59.0 °F 43.0 °F 55% 29.80 in 10.0 mi East 6.9 mph - N/A   Clear
6:53 AM 59.0 °F 43.0 °F 55% 29.83 in 10.0 mi East 5.8 mph - N/A   Clear
7:53 AM 60.1 °F 43.0 °F 53% 29.84 in 10.0 mi East 6.9 mph - N/A   Clear
8:53 AM 63.0 °F 44.1 °F 50% 29.86 in 10.0 mi Calm Calm - N/A   Clear
9:53 AM 64.0 °F 44.1 °F 48% 29.86 in 10.0 mi Variable 3.5 mph - N/A   Clear
10:53 AM 66.9 °F 45.0 °F 45% 29.86 in 10.0 mi Calm Calm - N/A   Clear
11:53 AM 71.1 °F 44.1 °F 38% 29.85 in 10.0 mi Calm Calm - N/A   Clear
12:53 PM 70.0 °F 42.1 °F 36% 29.85 in 10.0 mi Calm Calm - N/A   Clear
1:53 PM 69.1 °F 41.0 °F 36% 29.85 in 10.0 mi ESE 4.6 mph - N/A   Clear
2:53 PM 72.0 °F 37.9 °F 29% 29.83 in 10.0 mi Variable 5.8 mph - N/A   Clear
3:53 PM 68.0 °F 37.0 °F 32% 29.85 in 10.0 mi Variable 6.9 mph - N/A   Clear
4:53 PM 68.0 °F 39.0 °F 35% 29.85 in 10.0 mi ESE 3.5 mph - N/A   Clear
5:53 PM 66.0 °F 37.9 °F 36% 29.85 in 10.0 mi Variable 3.5 mph - N/A   Clear
6:53 PM 64.0 °F 37.0 °F 37% 29.86 in 10.0 mi ESE 4.6 mph - N/A   Clear
7:53 PM 63.0 °F 37.9 °F 40% 29.86 in 10.0 mi ESE 8.1 mph - N/A   Clear
8:53 PM 62.1 °F 39.0 °F 43% 29.86 in 10.0 mi ESE 8.1 mph 19.6 mph N/A   Clear
9:53 PM 61.0 °F 42.1 °F 50% 29.86 in 10.0 mi SE 10.4 mph 21.9 mph N/A   Clear
10:53 PM 59.0 °F 41.0 °F 51% 29.86 in 10.0 mi ESE 10.4 mph 19.6 mph N/A   Clear
11:53 PM 57.9 °F 39.9 °F 51% 29.83 in 10.0 mi ESE 9.2 mph 25.3 mph N/A   Clear